Skip Page Navigation
NASA JPL Caltech
NASA Logo - Jet Propulsion Laboratory + View the NASA Portal
+ Center for Near-Earth Object Studies
JPL Home Earth Solar System Stars & Galaxies Technology
JPL Solar System Dynamics
BODIES ORBITS EPHEMERIDES TOOLS PHYSICAL DATA DISCOVERY FAQ SITE MAP
JPL Small-Body Database Browser
Search: [ help ]  
277795 (2006 EJ35)
Classification: Main-belt Asteroid          SPK-ID: 2277795
Ephemeris | Orbit Diagram | Orbital Elements | Mission Design | Physical Parameters | Discovery Circumstances | Close-Approach Data ]

[ show orbit diagram ]
Orbital Elements at Epoch 2459000.5 (2020-May-31.0) TDB
Reference: JPL 16 (heliocentric ecliptic J2000)
 Element Value Uncertainty (1-sigma)   Units 
e .1113234284169621 1.4892e-07  
a 2.783136985842969 3.9038e-08 au
q 2.47330863482488 4.0485e-07 au
i 12.38948042341143 1.205e-05 deg
node .2724938289854277 2.9263e-05 deg
peri 36.80709290180555 5.3192e-05 deg
M 154.2540287624956 4.7193e-05 deg
tp 2458273.834877598646
(2018-Jun-04.33487760)
0.00021726 TDB
period 1695.90023782958
4.64
3.5681e-05
9.769e-08
d
yr
n .2122766374870785 4.4663e-09 deg/d
Q 3.092965336861059 4.3384e-08 au
  Orbit Determination Parameters
   # obs. used (total)      215  
   data-arc span      7503 days (20.54 yr)  
   first obs. used      1999-10-12  
   last obs. used      2020-04-27  
   planetary ephem.      DE431  
   SB-pert. ephem.      SB431-N16  
   condition code      0  
   norm. resid. RMS      .58534  
   source      ORB  
   producer      Otto Matic  
   solution date      2020-May-21 16:30:01  

Additional Information
 Earth MOID = 1.48958 au 
 Jupiter MOID = 2.40116 au 
 T_jup = 3.289 
[ show covariance matrix ]

Ephemeris | Orbit Diagram | Orbital Elements | Mission Design | Physical Parameters | Discovery Circumstances | Close-Approach Data ]

Physical Parameter Table
Parameter Symbol Value Units Sigma Reference Notes
absolute magnitude H 16.2   n/a MPO470939  
diameter diameter 2.880 km 0.466 urn:nasa:pds:neowise_diameters_albedos::2.0[mainbelt] (http://adsabs.harvard.edu/abs/2011ApJ...741...68M)  
geometric albedo albedo 0.077   0.055 urn:nasa:pds:neowise_diameters_albedos::2.0[mainbelt] (http://adsabs.harvard.edu/abs/2011ApJ...741...68M)  

277795 (2006 EJ35)          Discovered 2006-Mar-03 by Spacewatch at Kitt Peak
Reference: 20110517/Numbers.arcLast Updated: 2011-05-20

[ show close-approach data ]
Alternate Designations
 2006 EJ35 = 2008 RY58 
Ephemeris | Orbit Diagram | Orbital Elements | Mission Design | Physical Parameters | Discovery Circumstances | Close-Approach Data ]
ABOUT SSD CREDITS/AWARDS PRIVACY/COPYRIGHT GLOSSARY LINKS
FirstGov 2020-Jul-05 02:02 UT
(server date/time)  
NASA Home Page
Site Manager:   Ryan S. Park
Webmaster  Alan B. Chamberlin